Change the Weather History Date:

Saturday, October 26, 2013

  Actual Average Record
Temperature  
Mean Temperature 42 °F 37 °F  
Max Temperature 63 °F 51 °F 75 °F (1944)
Min Temperature 20 °F 24 °F 9 °F (2002)
Degree Days  
Heating Degree Days 23 28  
Month to date heating degree days 683 605  
Since 1 July heating degree days 1058 1226  
Cooling Degree Days 0 0  
Month to date cooling degree days 0 0  
Year to date cooling degree days 104 81  
Moisture  
Dew Point 22 °F    
Average Humidity 52    
Maximum Humidity 84    
Minimum Humidity 20    
Precipitation  
Precipitation 0.00 in 0.02 in 0.40 in (1925)
Month to date precipitation 0.17 0.68  
Year to date precipitation 10.45 11.56  
Sea Level Pressure  
Sea Level Pressure 30.32 in    
Wind  
Wind Speed 3 mph (ESE)    
Max Wind Speed 12 mph    
Max Gust Speed 15 mph    
Visibility 10 miles    
Events      
T = Trace of Precipitation, MM = Missing Value Source: NWS Daily Summary

Daily Weather History Graph

Daily Weather History Graph

Search for Another Location

Airport or City:

Trip Planner

Search our weather history database for the weather conditions in past years. The results will help you decide how hot, cold, wet, or windy it might be!

Date:

Astronomy

Oct. 26, 2013 Rise Set
Actual Time 8:02 AM MDT 6:24 PM MDT
Civil Twilight 7:31 AM MDT 6:55 PM MDT
Nautical Twilight 6:56 AM MDT 7:30 PM MDT
Astronomical Twilight 6:22 AM MDT 8:04 PM MDT
Moon No Moon Rise 2:23 PM MDT (10/26)
Length of Visible Light 11h 23m
Length of Day
10h 22m
Waning Gibbous, 52% of the Moon is Illuminated
Oct 26
Waning Gibbous
Oct 26
Last Quarter
Nov 3
New
Nov 9
First Quarter
Nov 17
Full

Hourly Weather History & Observations

Time (MDT) Temp. Windchill Dew Point Humidity Pressure Visibility Wind Dir Wind Speed Gust Speed Precip Events Conditions
12:53 AM 27.0 °F 23.0 °F 21.0 °F 78% 30.34 in 10.0 mi ESE 3.5 mph - N/A   Clear
1:53 AM 25.0 °F 20.7 °F 19.9 °F 81% 30.35 in 10.0 mi SSE 3.5 mph - N/A   Clear
2:53 AM 25.0 °F - 19.9 °F 81% 30.33 in 10.0 mi Calm Calm - N/A   Clear
3:53 AM 24.1 °F - 19.0 °F 81% 30.34 in 10.0 mi Calm Calm - N/A   Clear
4:53 AM 21.9 °F 17.2 °F 18.0 °F 85% 30.35 in 10.0 mi SE 3.5 mph - N/A   Clear
5:53 AM 21.0 °F - 17.1 °F 85% 30.37 in 10.0 mi Calm Calm - N/A   Clear
6:53 AM 21.0 °F 16.2 °F 17.1 °F 85% 30.39 in 10.0 mi SE 3.5 mph - N/A   Clear
7:53 AM 19.9 °F - 16.0 °F 85% 30.45 in 10.0 mi Calm Calm - N/A   Clear
8:53 AM 21.0 °F - 17.1 °F 85% 30.46 in 10.0 mi Calm Calm - N/A   Clear
9:53 AM 30.0 °F - 24.1 °F 79% 30.43 in 10.0 mi Calm Calm - N/A   Clear
10:53 AM 39.0 °F - 25.0 °F 57% 30.40 in 10.0 mi Calm Calm - N/A   Clear
11:53 AM 46.0 °F - 25.0 °F 44% 30.38 in 10.0 mi Calm Calm - N/A   Clear
12:53 PM 52.0 °F - 25.0 °F 35% 30.32 in 10.0 mi NW 3.5 mph - N/A   Clear
1:53 PM 59.0 °F - 25.0 °F 27% 30.27 in 10.0 mi NNW 4.6 mph - N/A   Clear
2:53 PM 62.1 °F - 23.0 °F 22% 30.23 in 10.0 mi NNW 3.5 mph - N/A   Clear
3:53 PM 62.1 °F - 21.9 °F 21% 30.21 in 10.0 mi NW 8.1 mph - N/A   Clear
4:53 PM 61.0 °F - 24.1 °F 24% 30.21 in 10.0 mi WNW 5.8 mph - N/A   Clear
5:53 PM 54.0 °F - 26.1 °F 34% 30.23 in 10.0 mi West 6.9 mph - N/A   Clear
6:53 PM 50.0 °F - 21.9 °F 33% 30.24 in 10.0 mi NNE 6.9 mph - N/A   Clear
7:53 PM 39.9 °F - 24.1 °F 53% 30.30 in 10.0 mi Calm Calm - N/A   Clear
8:53 PM 33.1 °F 28.7 °F 25.0 °F 72% 30.31 in 10.0 mi SSE 4.6 mph - N/A   Clear
9:53 PM 30.9 °F 26.2 °F 23.0 °F 72% 30.27 in 10.0 mi SSE 4.6 mph - N/A   Clear
10:53 PM 28.0 °F 22.8 °F 21.9 °F 78% 30.23 in 10.0 mi SE 4.6 mph - N/A   Clear
11:53 PM 27.0 °F - 19.9 °F 75% 30.19 in 10.0 mi Calm Calm - N/A   Clear